Tracking 29892 objects as of 21-Nov-2024
HD Live streaming from Space Station
objects crossing your sky now

FENGYUN 1C DEB

Track FENGYUN 1C DEB now!
10-day predictions


NORAD ID: 37595
Int'l Code: 1999-025EKP
Perigee: 713.9 km
Apogee: 764.4 km
Inclination: 99.1 °
Period: 99.4 minutes
Semi major axis: 7110 km
RCS: 0.0015 m2 (small)
Launch date: May 10, 1999
Source: People's Republic of China (PRC)
Launch site: Taiyaun Space Center, China (TSC)

Note: This is SATELLITE DEBRIS
Your satellite tracking list
Your tracking list is empty




NASA's NSSDC Master Catalog

Two Line Element Set (TLE):
1 37595U 99025EKP 24325.94264251  .00028118  00000-0  74864-2 0  9994
2 37595  99.0608 133.7744 0035551 106.4644  50.8417 14.48049781569614
Source of the keplerian elements: AFSPC